Wetterdaten: Samstag, 18.09.2010
Datum Zeit Temp. A. Feuchte A. Luftdruck Regen Wind Richtung Richtung Sonnenschein UV Solar Windben
18.09.2010 00:00 9,8 C 89 % 1014,7 hPa 0,0 mm 3,2 km/h (1 Bft) W-SW 247 0 min 0 UV-I 0 W/m 17,7 km/h (3 Bft)
18.09.2010 00:10 9,8 C 89 % 1014,8 hPa 0,0 mm 3,2 km/h (1 Bft) W-SW 247 0 min 0 UV-I 0 W/m 17,7 km/h (3 Bft)
18.09.2010 00:20 9,8 C 89 % 1014,7 hPa 0,0 mm 1,6 km/h (1 Bft) W-SW 247 0 min 0 UV-I 0 W/m 8,0 km/h (2 Bft)
18.09.2010 00:30 9,7 C 89 % 1014,7 hPa 0,0 mm 3,2 km/h (1 Bft) W-SW 247 0 min 0 UV-I 0 W/m 11,3 km/h (2 Bft)
18.09.2010 00:40 9,6 C 88 % 1014,7 hPa 0,0 mm 1,6 km/h (1 Bft) W-SW 247 0 min 0 UV-I 0 W/m 11,3 km/h (2 Bft)
18.09.2010 00:50 9,6 C 88 % 1014,7 hPa 0,0 mm 1,6 km/h (1 Bft) W-SW 247 0 min 0 UV-I 0 W/m 8,0 km/h (2 Bft)
18.09.2010 01:00 9,6 C 88 % 1014,7 hPa 0,0 mm 3,2 km/h (1 Bft) W 270 0 min 0 UV-I 0 W/m 16,1 km/h (3 Bft)
18.09.2010 01:10 9,6 C 88 % 1014,7 hPa 0,0 mm 1,6 km/h (1 Bft) W-SW 247 0 min 0 UV-I 0 W/m 9,7 km/h (2 Bft)
18.09.2010 01:20 9,7 C 88 % 1014,7 hPa 0,0 mm 3,2 km/h (1 Bft) W-SW 247 0 min 0 UV-I 0 W/m 9,7 km/h (2 Bft)
18.09.2010 01:30 9,8 C 88 % 1014,8 hPa 0,0 mm 4,8 km/h (1 Bft) W 270 0 min 0 UV-I 0 W/m 16,1 km/h (3 Bft)
18.09.2010 01:40 9,9 C 87 % 1014,8 hPa 0,0 mm 3,2 km/h (1 Bft) W-SW 247 0 min 0 UV-I 0 W/m 11,3 km/h (2 Bft)
18.09.2010 01:50 9,9 C 87 % 1014,8 hPa 0,0 mm 4,8 km/h (1 Bft) W-SW 247 0 min 0 UV-I 0 W/m 16,1 km/h (3 Bft)
18.09.2010 02:00 10,0 C 87 % 1014,9 hPa 0,0 mm 3,2 km/h (1 Bft) W 270 0 min 0 UV-I 0 W/m 9,7 km/h (2 Bft)
18.09.2010 02:10 10,0 C 87 % 1015,1 hPa 0,0 mm 3,2 km/h (1 Bft) W-SW 247 0 min 0 UV-I 0 W/m 14,5 km/h (3 Bft)
18.09.2010 02:20 10,0 C 87 % 1015,1 hPa 0,0 mm 6,4 km/h (2 Bft) W-SW 247 0 min 0 UV-I 0 W/m 16,1 km/h (3 Bft)
18.09.2010 02:30 9,9 C 87 % 1015,1 hPa 0,0 mm 6,4 km/h (2 Bft) W 270 0 min 0 UV-I 0 W/m 20,9 km/h (4 Bft)
18.09.2010 02:40 9,9 C 88 % 1015,2 hPa 0,0 mm 4,8 km/h (1 Bft) W 270 0 min 0 UV-I 0 W/m 14,5 km/h (3 Bft)
18.09.2010 02:50 9,8 C 88 % 1015,2 hPa 0,0 mm 3,2 km/h (1 Bft) W-SW 247 0 min 0 UV-I 0 W/m 14,5 km/h (3 Bft)
18.09.2010 03:00 9,8 C 88 % 1015,1 hPa 0,0 mm 3,2 km/h (1 Bft) W-SW 247 0 min 0 UV-I 0 W/m 14,5 km/h (3 Bft)
18.09.2010 03:10 9,8 C 88 % 1015,2 hPa 0,0 mm 3,2 km/h (1 Bft) W-SW 247 0 min 0 UV-I 0 W/m 9,7 km/h (2 Bft)
18.09.2010 03:20 9,7 C 89 % 1015,2 hPa 0,0 mm 1,6 km/h (1 Bft) W-SW 247 0 min 0 UV-I 0 W/m 9,7 km/h (2 Bft)
18.09.2010 03:30 9,7 C 89 % 1015,2 hPa 0,0 mm 1,6 km/h (1 Bft) W-SW 247 0 min 0 UV-I 0 W/m 9,7 km/h (2 Bft)
18.09.2010 03:40 9,7 C 89 % 1015,1 hPa 0,0 mm 3,2 km/h (1 Bft) W-SW 247 0 min 0 UV-I 0 W/m 11,3 km/h (2 Bft)
18.09.2010 03:50 9,6 C 89 % 1015,0 hPa 0,0 mm 1,6 km/h (1 Bft) S-SW 202 0 min 0 UV-I 0 W/m 8,0 km/h (2 Bft)
18.09.2010 04:00 9,6 C 89 % 1015,0 hPa 0,0 mm 3,2 km/h (1 Bft) W 270 0 min 0 UV-I 0 W/m 9,7 km/h (2 Bft)
18.09.2010 04:10 9,6 C 89 % 1015,0 hPa 0,0 mm 3,2 km/h (1 Bft) W-SW 247 0 min 0 UV-I 0 W/m 8,0 km/h (2 Bft)
18.09.2010 04:20 9,6 C 90 % 1015,0 hPa 0,0 mm 3,2 km/h (1 Bft) W 270 0 min 0 UV-I 0 W/m 14,5 km/h (3 Bft)
18.09.2010 04:30 9,6 C 90 % 1015,0 hPa 0,0 mm 3,2 km/h (1 Bft) W 270 0 min 0 UV-I 0 W/m 12,9 km/h (3 Bft)
18.09.2010 04:40 9,6 C 90 % 1015,0 hPa 0,0 mm 3,2 km/h (1 Bft) W-SW 247 0 min 0 UV-I 0 W/m 9,7 km/h (2 Bft)
18.09.2010 04:50 9,5 C 90 % 1015,1 hPa 0,0 mm 3,2 km/h (1 Bft) W-SW 247 0 min 0 UV-I 0 W/m 12,9 km/h (3 Bft)
18.09.2010 05:00 9,5 C 90 % 1015,1 hPa 0,0 mm 1,6 km/h (1 Bft) W 270 0 min 0 UV-I 0 W/m 9,7 km/h (2 Bft)
18.09.2010 05:10 9,5 C 90 % 1015,3 hPa 0,0 mm 4,8 km/h (1 Bft) W 270 0 min 0 UV-I 0 W/m 11,3 km/h (2 Bft)
18.09.2010 05:20 9,4 C 90 % 1015,4 hPa 0,0 mm 3,2 km/h (1 Bft) W-SW 247 0 min 0 UV-I 0 W/m 8,0 km/h (2 Bft)
18.09.2010 05:30 9,4 C 90 % 1015,4 hPa 0,0 mm 3,2 km/h (1 Bft) W-SW 247 0 min 0 UV-I 0 W/m 11,3 km/h (2 Bft)
18.09.2010 05:40 9,4 C 90 % 1015,3 hPa 0,0 mm 1,6 km/h (1 Bft) W-SW 247 0 min 0 UV-I 0 W/m 9,7 km/h (2 Bft)
18.09.2010 05:50 9,4 C 90 % 1015,5 hPa 0,0 mm 1,6 km/h (1 Bft) W-SW 247 0 min 0 UV-I 0 W/m 11,3 km/h (2 Bft)
18.09.2010 06:00 9,4 C 91 % 1015,5 hPa 0,0 mm 3,2 km/h (1 Bft) W 270 0 min 0 UV-I 0 W/m 11,3 km/h (2 Bft)
18.09.2010 06:10 9,4 C 91 % 1015,6 hPa 0,0 mm 1,6 km/h (1 Bft) W-SW 247 0 min 0 UV-I 0 W/m 9,7 km/h (2 Bft)
18.09.2010 06:20 9,4 C 91 % 1015,7 hPa 0,0 mm 3,2 km/h (1 Bft) W-SW 247 0 min 0 UV-I 0 W/m 9,7 km/h (2 Bft)
18.09.2010 06:30 9,4 C 91 % 1015,8 hPa 0,3 mm 3,2 km/h (1 Bft) W-SW 247 0 min 0 UV-I 0 W/m 11,3 km/h (2 Bft)
18.09.2010 06:40 9,3 C 91 % 1015,8 hPa 0,0 mm 3,2 km/h (1 Bft) SW 225 0 min 0 UV-I 0 W/m 11,3 km/h (2 Bft)
18.09.2010 06:50 9,3 C 91 % 1015,8 hPa 0,0 mm 3,2 km/h (1 Bft) W 270 0 min 0 UV-I 0 W/m 14,5 km/h (3 Bft)
18.09.2010 07:00 9,3 C 91 % 1015,8 hPa 0,0 mm 1,6 km/h (1 Bft) W 270 0 min 0 UV-I 0 W/m 9,7 km/h (2 Bft)
18.09.2010 07:10 9,2 C 91 % 1015,9 hPa 0,0 mm 1,6 km/h (1 Bft) W-SW 247 0 min 0 UV-I 0 W/m 9,7 km/h (2 Bft)
18.09.2010 07:20 9,1 C 91 % 1016,1 hPa 0,0 mm 1,6 km/h (1 Bft) W-SW 247 0 min 0 UV-I 9 W/m 6,4 km/h (2 Bft)
18.09.2010 07:30 9,1 C 91 % 1016,1 hPa 0,0 mm 1,6 km/h (1 Bft) W 270 0 min 0 UV-I 16 W/m 14,5 km/h (3 Bft)
18.09.2010 07:40 9,0 C 91 % 1016,2 hPa 0,0 mm 1,6 km/h (1 Bft) W-SW 247 0 min 0 UV-I 19 W/m 9,7 km/h (2 Bft)
18.09.2010 07:50 8,9 C 91 % 1016,3 hPa 0,0 mm 1,6 km/h (1 Bft) W-SW 247 0 min 0 UV-I 30 W/m 6,4 km/h (2 Bft)
18.09.2010 08:00 8,9 C 91 % 1016,4 hPa 0,0 mm 3,1 km/h (1 Bft) SW 217 0 min 0 UV-I 33 W/m 9,7 km/h (2 Bft)
18.09.2010 08:10 9,0 C 92 % 1016,4 hPa 0,0 mm 3,2 km/h (1 Bft) W-SW 247 0 min 0 UV-I 42 W/m 8,0 km/h (2 Bft)
18.09.2010 08:20 9,1 C 92 % 1016,5 hPa 0,0 mm 1,6 km/h (1 Bft) W-SW 247 0 min 0 UV-I 54 W/m 9,7 km/h (2 Bft)
18.09.2010 08:30 9,3 C 92 % 1016,7 hPa 0,0 mm 1,6 km/h (1 Bft) W-SW 247 10 min 0 UV-I 123 W/m 6,4 km/h (2 Bft)
18.09.2010 08:40 9,6 C 92 % 1016,8 hPa 0,0 mm 3,2 km/h (1 Bft) W-SW 247 0 min 0 UV-I 105 W/m 16,1 km/h (3 Bft)
18.09.2010 08:50 9,8 C 91 % 1016,8 hPa 0,0 mm 3,2 km/h (1 Bft) W-SW 247 0 min 0 UV-I 90 W/m 12,9 km/h (3 Bft)
18.09.2010 09:00 9,9 C 91 % 1016,8 hPa 0,0 mm 4,8 km/h (1 Bft) W 270 0 min 1 UV-I 105 W/m 19,3 km/h (3 Bft)
18.09.2010 09:10 10,0 C 90 % 1016,9 hPa 0,0 mm 4,8 km/h (1 Bft) W 270 0 min 1 UV-I 118 W/m 14,5 km/h (3 Bft)
18.09.2010 09:20 10,2 C 90 % 1016,8 hPa 0,0 mm 4,8 km/h (1 Bft) W 270 0 min 1 UV-I 107 W/m 12,9 km/h (3 Bft)
18.09.2010 09:30 10,3 C 89 % 1016,9 hPa 0,0 mm 4,8 km/h (1 Bft) W 270 0 min 1 UV-I 128 W/m 14,5 km/h (3 Bft)
18.09.2010 09:40 10,4 C 88 % 1016,9 hPa 0,0 mm 4,8 km/h (1 Bft) W-SW 247 0 min 1 UV-I 141 W/m 16,1 km/h (3 Bft)
18.09.2010 09:50 10,6 C 87 % 1017,0 hPa 0,0 mm 3,2 km/h (1 Bft) W-SW 247 10 min 1 UV-I 255 W/m 11,3 km/h (2 Bft)
18.09.2010 10:00 10,8 C 86 % 1016,8 hPa 0,0 mm 3,2 km/h (1 Bft) W-SW 247 0 min 1 UV-I 211 W/m 11,3 km/h (2 Bft)
18.09.2010 10:10 10,9 C 85 % 1016,9 hPa 0,0 mm 4,8 km/h (1 Bft) W-SW 247 0 min 1 UV-I 200 W/m 14,5 km/h (3 Bft)
18.09.2010 10:20 11,0 C 84 % 1017,0 hPa 0,0 mm 3,2 km/h (1 Bft) W-SW 247 0 min 1 UV-I 171 W/m 16,1 km/h (3 Bft)
18.09.2010 10:30 11,1 C 83 % 1017,0 hPa 0,0 mm 6,4 km/h (2 Bft) W 270 0 min 1 UV-I 171 W/m 14,5 km/h (3 Bft)
18.09.2010 10:40 11,1 C 84 % 1016,9 hPa 0,0 mm 4,8 km/h (1 Bft) W 270 0 min 1 UV-I 158 W/m 14,5 km/h (3 Bft)
18.09.2010 10:50 11,2 C 83 % 1016,9 hPa 0,0 mm 3,2 km/h (1 Bft) W-SW 247 0 min 1 UV-I 181 W/m 16,1 km/h (3 Bft)
18.09.2010 11:00 11,3 C 82 % 1017,1 hPa 0,0 mm 3,2 km/h (1 Bft) W-SW 247 0 min 1 UV-I 200 W/m 9,7 km/h (2 Bft)
18.09.2010 11:10 11,4 C 81 % 1016,9 hPa 0,0 mm 4,8 km/h (1 Bft) W 270 0 min 2 UV-I 214 W/m 14,5 km/h (3 Bft)
18.09.2010 11:20 11,5 C 80 % 1016,9 hPa 0,0 mm 4,8 km/h (1 Bft) W 270 10 min 2 UV-I 309 W/m 11,3 km/h (2 Bft)
18.09.2010 11:30 11,8 C 80 % 1016,9 hPa 0,0 mm 3,2 km/h (1 Bft) W 270 10 min 3 UV-I 621 W/m 11,3 km/h (2 Bft)
18.09.2010 11:40 12,3 C 78 % 1016,8 hPa 0,0 mm 4,8 km/h (1 Bft) W 270 10 min 3 UV-I 338 W/m 12,9 km/h (3 Bft)
18.09.2010 11:50 12,3 C 76 % 1016,9 hPa 0,0 mm 4,8 km/h (1 Bft) W 270 10 min 3 UV-I 652 W/m 16,1 km/h (3 Bft)
18.09.2010 12:00 12,8 C 73 % 1016,8 hPa 0,0 mm 4,8 km/h (1 Bft) W 270 0 min 3 UV-I 323 W/m 16,1 km/h (3 Bft)
18.09.2010 12:10 12,7 C 74 % 1016,8 hPa 0,0 mm 6,4 km/h (2 Bft) W 270 0 min 2 UV-I 253 W/m 19,3 km/h (3 Bft)
18.09.2010 12:20 12,7 C 75 % 1016,9 hPa 0,0 mm 4,8 km/h (1 Bft) W 270 10 min 3 UV-I 756 W/m 14,5 km/h (3 Bft)
18.09.2010 12:30 13,1 C 71 % 1016,8 hPa 0,0 mm 8,0 km/h (2 Bft) W 270 0 min 2 UV-I 165 W/m 20,9 km/h (4 Bft)
18.09.2010 12:40 12,7 C 70 % 1016,8 hPa 0,0 mm 6,4 km/h (2 Bft) W-SW 247 0 min 2 UV-I 285 W/m 16,1 km/h (3 Bft)
18.09.2010 12:50 12,8 C 69 % 1016,8 hPa 0,0 mm 6,4 km/h (2 Bft) W-SW 247 10 min 2 UV-I 360 W/m 17,7 km/h (3 Bft)
18.09.2010 13:00 12,9 C 69 % 1016,9 hPa 0,0 mm 6,4 km/h (2 Bft) W-SW 247 0 min 1 UV-I 132 W/m 19,3 km/h (3 Bft)
18.09.2010 13:10 12,8 C 73 % 1016,9 hPa 0,0 mm 4,8 km/h (1 Bft) W 270 0 min 3 UV-I 239 W/m 11,3 km/h (2 Bft)
18.09.2010 13:20 13,3 C 68 % 1016,8 hPa 0,0 mm 6,4 km/h (2 Bft) W-SW 247 0 min 4 UV-I 290 W/m 17,7 km/h (3 Bft)
18.09.2010 13:30 13,9 C 67 % 1016,7 hPa 0,0 mm 4,8 km/h (1 Bft) W-SW 247 10 min 2 UV-I 373 W/m 17,7 km/h (3 Bft)
18.09.2010 13:40 13,6 C 65 % 1016,8 hPa 0,0 mm 8,0 km/h (2 Bft) W-SW 247 0 min 1 UV-I 127 W/m 19,3 km/h (3 Bft)
18.09.2010 13:50 13,2 C 67 % 1016,9 hPa 0,0 mm 8,0 km/h (2 Bft) W 270 0 min 2 UV-I 206 W/m 16,1 km/h (3 Bft)
18.09.2010 14:00 13,2 C 68 % 1016,8 hPa 0,0 mm 3,2 km/h (1 Bft) W-SW 247 0 min 1 UV-I 148 W/m 14,5 km/h (3 Bft)
18.09.2010 14:10 13,2 C 67 % 1016,8 hPa 0,0 mm 6,4 km/h (2 Bft) W 270 0 min 2 UV-I 188 W/m 16,1 km/h (3 Bft)
18.09.2010 14:20 13,3 C 67 % 1016,7 hPa 0,0 mm 4,8 km/h (1 Bft) W-SW 247 0 min 1 UV-I 181 W/m 17,7 km/h (3 Bft)
18.09.2010 14:30 13,4 C 68 % 1016,6 hPa 0,0 mm 4,8 km/h (1 Bft) W 270 0 min 2 UV-I 195 W/m 16,1 km/h (3 Bft)
18.09.2010 14:40 13,6 C 68 % 1016,5 hPa 0,0 mm 4,8 km/h (1 Bft) W 270 0 min 2 UV-I 304 W/m 16,1 km/h (3 Bft)
18.09.2010 14:50 13,8 C 67 % 1016,3 hPa 0,0 mm 3,2 km/h (1 Bft) W 270 0 min 2 UV-I 297 W/m 9,7 km/h (2 Bft)
18.09.2010 15:00 14,1 C 66 % 1016,4 hPa 0,0 mm 4,8 km/h (1 Bft) W-SW 247 10 min 3 UV-I 494 W/m 19,3 km/h (3 Bft)
18.09.2010 15:10 14,3 C 64 % 1016,2 hPa 0,0 mm 6,4 km/h (2 Bft) W-SW 247 10 min 3 UV-I 664 W/m 19,3 km/h (3 Bft)
18.09.2010 15:20 14,4 C 63 % 1016,3 hPa 0,0 mm 4,8 km/h (1 Bft) W 270 0 min 2 UV-I 193 W/m 17,7 km/h (3 Bft)
18.09.2010 15:30 14,0 C 66 % 1016,3 hPa 0,0 mm 3,2 km/h (1 Bft) W-SW 247 0 min 1 UV-I 118 W/m 17,7 km/h (3 Bft)
18.09.2010 15:40 13,7 C 66 % 1016,2 hPa 0,0 mm 4,8 km/h (1 Bft) W 270 0 min 1 UV-I 125 W/m 12,9 km/h (3 Bft)
18.09.2010 15:50 13,6 C 67 % 1016,3 hPa 0,0 mm 3,2 km/h (1 Bft) W 270 0 min 1 UV-I 86 W/m 14,5 km/h (3 Bft)
18.09.2010 16:00 13,3 C 68 % 1016,6 hPa 0,0 mm 2,7 km/h (1 Bft) W-NW 292 0 min 0 UV-I 36 W/m 8,0 km/h (2 Bft)
18.09.2010 16:10 12,8 C 73 % 1016,6 hPa 0,0 mm 3,2 km/h (1 Bft) NW 315 0 min 1 UV-I 69 W/m 16,1 km/h (3 Bft)
18.09.2010 16:20 12,0 C 77 % 1016,7 hPa 0,0 mm 3,2 km/h (1 Bft) W-NW 292 0 min 1 UV-I 77 W/m 11,3 km/h (2 Bft)
18.09.2010 16:30 11,8 C 78 % 1016,6 hPa 0,0 mm 1,6 km/h (1 Bft) W-NW 292 0 min 1 UV-I 70 W/m 6,4 km/h (2 Bft)
18.09.2010 16:40 11,8 C 77 % 1016,6 hPa 0,0 mm 1,6 km/h (1 Bft) W-NW 292 0 min 0 UV-I 42 W/m 8,0 km/h (2 Bft)
18.09.2010 16:50 11,8 C 78 % 1016,6 hPa 0,0 mm 3,2 km/h (1 Bft) W 270 0 min 1 UV-I 81 W/m 19,3 km/h (3 Bft)
18.09.2010 17:00 11,6 C 79 % 1016,5 hPa 0,0 mm 1,6 km/h (1 Bft) W 270 0 min 1 UV-I 84 W/m 8,0 km/h (2 Bft)
18.09.2010 17:10 11,7 C 78 % 1016,6 hPa 0,0 mm 1,6 km/h (1 Bft) W-SW 247 0 min 0 UV-I 60 W/m 8,0 km/h (2 Bft)
18.09.2010 17:20 11,7 C 78 % 1016,5 hPa 0,0 mm 1,6 km/h (1 Bft) W-SW 247 0 min 0 UV-I 46 W/m 8,0 km/h (2 Bft)
18.09.2010 17:30 11,6 C 79 % 1016,3 hPa 0,0 mm 1,6 km/h (1 Bft) W-SW 247 0 min 1 UV-I 91 W/m 6,4 km/h (2 Bft)
18.09.2010 17:40 11,8 C 78 % 1016,4 hPa 0,0 mm 0,0 km/h (0 Bft) W-SW 247 0 min 1 UV-I 91 W/m 6,4 km/h (2 Bft)
18.09.2010 17:50 11,8 C 78 % 1016,3 hPa 0,0 mm 3,2 km/h (1 Bft) W 270 0 min 1 UV-I 77 W/m 8,0 km/h (2 Bft)
18.09.2010 18:00 11,8 C 78 % 1016,3 hPa 0,0 mm 1,6 km/h (1 Bft) W 270 0 min 0 UV-I 58 W/m 9,7 km/h (2 Bft)
18.09.2010 18:10 11,8 C 79 % 1016,4 hPa 0,0 mm 1,6 km/h (1 Bft) W-SW 247 0 min 0 UV-I 26 W/m 6,4 km/h (2 Bft)
18.09.2010 18:20 11,7 C 81 % 1016,5 hPa 0,0 mm 1,6 km/h (1 Bft) SW 225 0 min 0 UV-I 21 W/m 8,0 km/h (2 Bft)
18.09.2010 18:30 11,5 C 82 % 1016,7 hPa 0,0 mm 3,2 km/h (1 Bft) W 270 0 min 0 UV-I 11 W/m 16,1 km/h (3 Bft)
18.09.2010 18:40 11,2 C 83 % 1016,6 hPa 0,0 mm 1,6 km/h (1 Bft) W 270 0 min 0 UV-I 5 W/m 6,4 km/h (2 Bft)
18.09.2010 18:50 10,9 C 84 % 1016,8 hPa 0,0 mm 0,0 km/h (0 Bft) W-SW 247 0 min 0 UV-I 5 W/m 6,4 km/h (2 Bft)
18.09.2010 19:00 10,9 C 86 % 1016,7 hPa 0,0 mm 1,6 km/h (1 Bft) W-SW 247 0 min 0 UV-I 5 W/m 9,7 km/h (2 Bft)
18.09.2010 19:10 10,8 C 86 % 1016,5 hPa 0,0 mm 1,6 km/h (1 Bft) SW 225 0 min 0 UV-I 7 W/m 8,0 km/h (2 Bft)
18.09.2010 19:20 10,7 C 86 % 1016,6 hPa 0,0 mm 1,6 km/h (1 Bft) W-SW 247 0 min 0 UV-I 7 W/m 9,7 km/h (2 Bft)
18.09.2010 19:30 10,6 C 86 % 1016,4 hPa 0,0 mm 1,6 km/h (1 Bft) SW 225 0 min 0 UV-I 7 W/m 8,0 km/h (2 Bft)
18.09.2010 19:40 10,6 C 85 % 1016,4 hPa 0,0 mm 0,0 km/h (0 Bft) SW 225 0 min 0 UV-I 0 W/m 6,4 km/h (2 Bft)
18.09.2010 19:50 10,4 C 85 % 1016,5 hPa 0,0 mm 0,0 km/h (0 Bft) SW 225 0 min 0 UV-I 0 W/m 3,2 km/h (1 Bft)
18.09.2010 20:00 10,2 C 86 % 1016,5 hPa 0,0 mm 0,0 km/h (0 Bft) S-SW 202 0 min 0 UV-I 0 W/m 3,2 km/h (1 Bft)
18.09.2010 20:10 10,1 C 87 % 1016,6 hPa 0,0 mm 0,0 km/h (0 Bft) S-SW 202 0 min 0 UV-I 0 W/m 1,6 km/h (1 Bft)
18.09.2010 20:20 9,8 C 87 % 1016,8 hPa 0,0 mm 0,0 km/h (0 Bft) S-SW 202 0 min 0 UV-I 0 W/m 1,6 km/h (1 Bft)
18.09.2010 20:30 9,6 C 87 % 1016,8 hPa 0,0 mm 0,0 km/h (0 Bft) S-SW 202 0 min 0 UV-I 0 W/m 1,6 km/h (1 Bft)
18.09.2010 20:40 9,4 C 88 % 1016,9 hPa 0,0 mm 0,0 km/h (0 Bft) N 0 0 min 0 UV-I 0 W/m 0,0 km/h (0 Bft)
18.09.2010 20:50 9,3 C 88 % 1016,8 hPa 0,0 mm 0,0 km/h (0 Bft) S-SW 202 0 min 0 UV-I 0 W/m 1,6 km/h (1 Bft)
18.09.2010 21:00 9,2 C 88 % 1016,7 hPa 0,0 mm 0,0 km/h (0 Bft) S-SW 202 0 min 0 UV-I 0 W/m 1,6 km/h (1 Bft)
18.09.2010 21:10 9,0 C 88 % 1016,8 hPa 0,0 mm 0,0 km/h (0 Bft) N 0 0 min 0 UV-I 0 W/m 0,0 km/h (0 Bft)
18.09.2010 21:20 8,8 C 89 % 1016,8 hPa 0,0 mm 0,0 km/h (0 Bft) S-SW 202 0 min 0 UV-I 0 W/m 1,6 km/h (1 Bft)
18.09.2010 21:30 8,7 C 89 % 1016,8 hPa 0,0 mm 0,0 km/h (0 Bft) N 0 0 min 0 UV-I 0 W/m 0,0 km/h (0 Bft)
18.09.2010 21:40 8,4 C 89 % 1016,8 hPa 0,0 mm 0,0 km/h (0 Bft) N 0 0 min 0 UV-I 0 W/m 0,0 km/h (0 Bft)
18.09.2010 21:50 8,2 C 89 % 1016,9 hPa 0,0 mm 0,0 km/h (0 Bft) N 0 0 min 0 UV-I 0 W/m 0,0 km/h (0 Bft)
18.09.2010 22:00 7,9 C 89 % 1016,9 hPa 0,0 mm 0,0 km/h (0 Bft) N 0 0 min 0 UV-I 0 W/m 0,0 km/h (0 Bft)
18.09.2010 22:10 7,8 C 90 % 1017,0 hPa 0,0 mm 0,0 km/h (0 Bft) N 0 0 min 0 UV-I 0 W/m 0,0 km/h (0 Bft)
18.09.2010 22:20 7,6 C 90 % 1017,0 hPa 0,0 mm 0,0 km/h (0 Bft) N 0 0 min 0 UV-I 0 W/m 0,0 km/h (0 Bft)
18.09.2010 22:30 7,4 C 90 % 1016,9 hPa 0,0 mm 0,0 km/h (0 Bft) N 0 0 min 0 UV-I 0 W/m 0,0 km/h (0 Bft)
18.09.2010 22:40 7,3 C 90 % 1016,9 hPa 0,0 mm 0,0 km/h (0 Bft) N 0 0 min 0 UV-I 0 W/m 0,0 km/h (0 Bft)
18.09.2010 22:50 7,3 C 91 % 1017,0 hPa 0,0 mm 0,0 km/h (0 Bft) N 0 0 min 0 UV-I 0 W/m 0,0 km/h (0 Bft)
18.09.2010 23:00 7,3 C 91 % 1016,9 hPa 0,0 mm 0,0 km/h (0 Bft) N 0 0 min 0 UV-I 0 W/m 0,0 km/h (0 Bft)
18.09.2010 23:10 7,6 C 92 % 1016,9 hPa 0,0 mm 0,0 km/h (0 Bft) N 0 0 min 0 UV-I 0 W/m 0,0 km/h (0 Bft)
18.09.2010 23:20 7,8 C 92 % 1016,9 hPa 0,0 mm 0,0 km/h (0 Bft) N 0 0 min 0 UV-I 0 W/m 0,0 km/h (0 Bft)
18.09.2010 23:30 7,9 C 92 % 1016,9 hPa 0,0 mm 0,0 km/h (0 Bft) N 0 0 min 0 UV-I 0 W/m 0,0 km/h (0 Bft)
18.09.2010 23:40 8,0 C 92 % 1016,8 hPa 0,0 mm 0,0 km/h (0 Bft) S-SW 202 0 min 0 UV-I 0 W/m 1,6 km/h (1 Bft)
18.09.2010 23:50 8,0 C 92 % 1016,7 hPa 0,0 mm 0,0 km/h (0 Bft) S-SW 202 0 min 0 UV-I 0 W/m 1,6 km/h (1 Bft)
_ Min-Zeit 22:30 15:20 00:00 - 17:40 - - - - - 20:40
Minimum _ 7,3 C 63 % 1014,7 hPa - 0,0 km/h (0 Bft) - - - - - 0,0 km/h (0 Bft)
_ Max-Zeit 15:10 08:10 11:00 06:30 12:30 - - 08:30 13:20 12:20 02:30
Maximum _ 14,6 C 92 % 1017,1 hPa 0,3 mm 8,0 km/h
W (2 Bft)
- - 10 min 4 UV-I 756 W/m 20,9 km/h
W-SW (4 Bft)
Durchschnitt _ 10,5 C 84 % 1016,2 hPa #0,3 mm 2,8 km/h (1 Bft) W-SW - #1:50 h 2 UV-I 166 W/m 10,4 km/h (2 Bft)